Weather History for Luxor, Egypt

Change the Weather History Date:

Tuesday, November 20, 2012

  Actual Average Record
Temperature  
Mean Temperature 70 °F -  
Max Temperature 85 °F 75 °F 91 °F (1999)
Min Temperature 54 °F 49 °F 50 °F (2000)
Cooling Degree Days 4    
Growing Degree Days 20 (Base 50)    
Moisture  
Dew Point 49 °F    
Average Humidity 46    
Maximum Humidity 67    
Minimum Humidity 27    
Precipitation  
Precipitation 0.00 in 0.00 in - ()
Sea Level Pressure  
Sea Level Pressure 29.97 in    
Wind  
Wind Speed 1 mph ()    
Max Wind Speed 5 mph    
Max Gust Speed -    
Visibility 6.0 miles    
Events      
Averages and records for this station are not official NWS values.
T = Trace of Precipitation, MM = Missing Value Source: Averaged Metar Reports

Daily Weather History Graph

Daily Weather History Graph

Search for Another Location

Airport:

Trip Planner

Search our weather history database for the weather conditions in past years. The results will help you decide how hot, cold, wet, or windy it might be!

Date:

Astronomy

Nov. 20, 2012 Rise Set
Actual Time 6:10 AM EET 4:58 PM EET
Civil Twilight 5:46 AM EET 5:23 PM EET
Nautical Twilight 5:18 AM EET 5:51 PM EET
Astronomical Twilight 4:50 AM EET 6:18 PM EET
Moon 11:52 AM EET (11/20) 11:47 PM EET (11/20)
Length of Visible Light 11h 37m
Length of Day
10h 48m
Waxing Crescent, 48% of the Moon is Illuminated
Nov 20
Waxing Crescent
Nov 20
First Quarter
Nov 28
Full
Dec 6
Last Quarter
Dec 13
New

Hourly Weather History & Observations

Time (EET) Temp. Heat Index Dew Point Humidity Pressure Visibility Wind Dir Wind Speed Gust Speed Precip Events Conditions
12:00 AM 62.6 °F - 42.8 °F 48% 29.98 in - Calm Calm - N/A   Clear
1:00 AM 62.6 °F - 42.8 °F 48% 29.98 in - Calm Calm - N/A   Clear
2:00 AM 59 °F - 47 °F 56% 29.98 in 6 mi NNW 2.3 mph - -  
2:00 AM 59.0 °F - 48.2 °F 67% 29.98 in - NNW 2.3 mph - N/A   Clear
3:00 AM 59.0 °F - 48.2 °F 67% 29.98 in - NNW 2.3 mph - N/A   Clear
4:00 AM 59.0 °F - 41.0 °F 51% 29.98 in - SSE 4.6 mph - N/A   Clear
5:00 AM 59.0 °F - 41.0 °F 51% 29.98 in - Calm Calm - N/A   Clear
6:00 AM 55.4 °F - 41.0 °F 58% 29.98 in - NW 2.3 mph - N/A   Clear
7:00 AM 59.0 °F - 41.0 °F 51% 30.01 in - Calm Calm - N/A   Clear
8:00 AM 64 °F - 44 °F 36% 30.02 in 6 mi Calm Calm - -  
8:00 AM 64.4 °F - 44.6 °F 49% 30.01 in - Calm Calm - N/A   Clear
9:00 AM 69.8 °F - 46.4 °F 43% 30.04 in - Calm Calm - N/A   Clear
10:00 AM 73.4 °F - 53.6 °F 50% 30.01 in - North 4.6 mph - N/A   Clear
11:00 AM 77.0 °F - 59.0 °F 54% 29.98 in - Calm Calm - N/A   Clear
12:00 PM 82.4 °F 82.5 °F 59.0 °F 45% 29.98 in - Calm Calm - N/A   Clear
1:00 PM 82.4 °F 82.0 °F 57.2 °F 42% 29.95 in - North 2.3 mph - N/A   Clear
2:00 PM 84 °F - 55 °F 27% 29.93 in 6 mi NW 2.3 mph - -  
2:00 PM 84.2 °F 83.0 °F 55.4 °F 37% 29.92 in - NW 2.3 mph - N/A   Clear
3:00 PM 84.2 °F 83.0 °F 55.4 °F 37% 29.92 in - NW 2.3 mph - N/A   Clear
4:00 PM 82.4 °F - 51.8 °F 35% 29.92 in - Calm Calm - N/A   Clear
5:00 PM 80.6 °F 80.3 °F 53.6 °F 39% 29.92 in - Calm Calm - N/A   Clear
6:00 PM 77.0 °F - 53.6 °F 44% 29.92 in - NNW 2.3 mph - N/A   Clear
7:00 PM 73.4 °F - 50.0 °F 44% 29.95 in - Calm Calm - N/A   Clear
8:00 PM 72 °F - 48 °F 31% 29.95 in 6 mi South 2.3 mph - -  
8:00 PM 71.6 °F - 48.2 °F 43% 29.95 in - South 2.3 mph - N/A   Clear
9:00 PM 69.8 °F - 46.4 °F 43% 29.95 in - SSE 1.2 mph - N/A   Clear
10:00 PM 66.2 °F - 46.4 °F 49% 29.95 in - Calm Calm - N/A   Clear
11:00 PM 66.2 °F - 46.4 °F 49% 29.95 in - Calm Calm - N/A   Clear